Ely, NV

10:07 AM PDT on May 26, 2017 (GMT -0700)
Ely

Weather History for KELY - December, 2013

Change the Weather History Date:

Thursday, December 5, 2013

  Actual Average Record
Temperature  
Mean Temperature -6 °F 26 °F  
Max Temperature 10 °F 41 °F 65 °F (1939)
Min Temperature -23 °F 12 °F -23 °F (2013)
Degree Days  
Heating Degree Days 71 39  
Month to date heating degree days 228 190  
Since 1 July heating degree days 1993 2058  
Cooling Degree Days 0 0  
Month to date cooling degree days 0 0  
Year to date cooling degree days 387 218  
Moisture  
Dew Point -14 °F    
Average Humidity 75    
Maximum Humidity 87    
Minimum Humidity 63    
Precipitation  
Precipitation 0.00 in 0.02 in 0.84 in (1966)
Month to date precipitation 0.45 0.08  
Year to date precipitation 8.00 9.25  
Snow  
Snow 0.00 in 0.20 in 5.50 in (1980)
Month to date snowfall 6.7 1.0  
Since 1 July snowfall 19.6 10.5  
Snow Depth 5.00 in    
Sea Level Pressure  
Sea Level Pressure 30.31 in    
Wind  
Wind Speed 10 mph (South)    
Max Wind Speed 21 mph    
Max Gust Speed 24 mph    
Visibility 10 miles    
Events      
T = Trace of Precipitation, MM = Missing Value Source: NWS Daily Summary

Daily Weather History Graph

Daily Weather History Graph

Search for Another Location

Airport or City:

Trip Planner

Search our weather history database for the weather conditions in past years. The results will help you decide how hot, cold, wet, or windy it might be!

Date:

Astronomy

Dec. 05, 2013 Rise Set
Actual Time 6:44 AM PST 4:16 PM PST
Civil Twilight 6:14 AM PST 4:45 PM PST
Nautical Twilight 5:40 AM PST 5:19 PM PST
Astronomical Twilight 5:08 AM PST 5:51 PM PST
Moon 9:08 AM PST (12/5) 7:41 PM PST (12/5)
Length of Visible Light 10h 31m
Length of Day
9h 31m
Waxing Crescent, 11% of the Moon is Illuminated
Dec 5
Waxing Crescent
Dec 9
First Quarter
Dec 17
Full
Dec 25
Last Quarter
Jan 1
New

Hourly Weather History & Observations

Time (PST) Temp. Windchill Dew Point Humidity Pressure Visibility Wind Dir Wind Speed Gust Speed Precip Events Conditions
12:53 AM -17.0 °F -37.3 °F -20.9 °F 82% 30.23 in 10.0 mi South 10.4 mph - N/A   Clear
1:53 AM -18.9 °F -41.8 °F -23.1 °F 81% 30.23 in 10.0 mi South 12.7 mph - N/A   Clear
2:53 AM -20.0 °F -44.1 °F -24.0 °F 82% 30.23 in 10.0 mi South 13.8 mph - N/A   Clear
3:53 AM -20.0 °F -42.2 °F -24.0 °F 82% 30.25 in 10.0 mi South 11.5 mph - N/A   Clear
4:53 AM -18.9 °F -42.8 °F -23.1 °F 81% 30.32 in 10.0 mi South 13.8 mph - N/A   Clear
5:53 AM -20.9 °F -45.3 °F -25.1 °F 81% 30.34 in 10.0 mi South 13.8 mph - N/A   Clear
6:53 AM -20.0 °F -45.8 °F -25.1 °F 78% 30.36 in 10.0 mi South 16.1 mph - N/A   Scattered Clouds
7:53 AM -18.9 °F -37.2 °F -22.0 °F 86% 30.36 in 10.0 mi South 8.1 mph - N/A   Clear
8:53 AM -9.9 °F -27.5 °F -15.0 °F 78% 30.36 in 10.0 mi South 9.2 mph - N/A   Clear
9:53 AM -2.9 °F -13.3 °F -7.1 °F 82% 30.34 in 10.0 mi SSW 4.6 mph - N/A   Clear
10:53 AM 3.9 °F - -5.1 °F 66% 30.29 in 10.0 mi Calm Calm - N/A   Clear
11:53 AM 8.1 °F - -2.0 °F 64% 30.25 in 10.0 mi Calm Calm - N/A   Clear
12:53 PM 10.0 °F 0.4 °F -0.0 °F 64% 30.22 in 10.0 mi North 5.8 mph - N/A   Clear
1:53 PM 9.0 °F 0.6 °F 1.0 °F 70% 30.24 in 10.0 mi NNW 4.6 mph - N/A   Clear
2:53 PM 10.0 °F - 1.0 °F 67% 30.24 in 10.0 mi Calm Calm - N/A   Clear
3:53 PM 5.0 °F - -0.9 °F 76% 30.27 in 10.0 mi Calm Calm - N/A   Clear
4:53 PM -0.0 °F -7.9 °F -5.1 °F 79% 30.29 in 10.0 mi NW 3.5 mph - N/A   Clear
5:53 PM -9.9 °F -28.6 °F -14.1 °F 82% 30.38 in 10.0 mi South 10.4 mph - N/A   Clear
6:53 PM -13.0 °F -34.3 °F -17.0 °F 82% 30.41 in 10.0 mi South 12.7 mph - N/A   Clear
7:53 PM -14.1 °F -34.7 °F -18.0 °F 82% 30.42 in 10.0 mi South 11.5 mph - N/A   Clear
8:53 PM -15.0 °F -38.5 °F -18.9 °F 82% 30.37 in 10.0 mi South 15.0 mph - N/A   Partly Cloudy
9:53 PM -13.0 °F -36.0 °F -18.0 °F 78% 30.34 in 10.0 mi South 15.0 mph - N/A   Clear
10:53 PM -18.0 °F -41.6 °F -23.1 °F 78% 30.33 in 10.0 mi SSE 13.8 mph - N/A   Clear
11:53 PM -15.0 °F -38.5 °F -20.0 °F 78% 30.29 in 10.0 mi SSE 15.0 mph - N/A   Clear